Weather History for Haines, AK

Change the Weather History Date:

Tuesday, August 20, 2013

  Actual Average Record
Temperature  
Mean Temperature 58 °F -  
Max Temperature 61 °F 59 °F 93 °F (1977)
Min Temperature 55 °F 49 °F 35 °F (1973)
Degree Days  
Heating Degree Days 8    
Growing Degree Days 8 (Base 50)    
Moisture  
Dew Point 52 °F    
Average Humidity 84    
Maximum Humidity 89    
Minimum Humidity 75    
Precipitation  
Precipitation 0.00 in - - ()
Sea Level Pressure  
Sea Level Pressure 30.02 in    
Wind  
Wind Speed 8 mph (East)    
Max Wind Speed 14 mph    
Max Gust Speed 24 mph    
Visibility 10 miles    
Events      
Averages and records for this station are not official NWS values.
T = Trace of Precipitation, MM = Missing Value Source: NWS Daily Summary

Daily Weather History Graph

Daily Weather History Graph

Search for Another Location

Airport:

Trip Planner

Search our weather history database for the weather conditions in past years. The results will help you decide how hot, cold, wet, or windy it might be!

Date:

Astronomy

Aug. 20, 2013 Rise Set
Actual Time 5:32 AM AKDT 8:36 PM AKDT
Civil Twilight 4:44 AM AKDT 9:23 PM AKDT
Nautical Twilight 3:39 AM AKDT 10:28 PM AKDT
Astronomical Twilight 1:44 AM AKDT 12:14 AM AKDT
Moon 7:53 PM AKDT (8/20) 5:20 AM AKDT (8/20)
Length of Visible Light 16h 38m
Length of Day
15h 04m
Full, 100% of the Moon is Illuminated
Aug 20
Full
Aug 20
Full
Aug 28
Last Quarter
Sep 5
New
Sep 12
First Quarter

Hourly Weather History & Observations

Time (AKDT) Temp. Dew Point Humidity Pressure Visibility Wind Dir Wind Speed Gust Speed Precip Events Conditions
12:32 AM 55.4 °F 51.8 °F 88% 29.92 in 10.0 mi East 6.9 mph - N/A   Overcast
12:39 AM 55.4 °F 51.8 °F 88% 29.92 in 10.0 mi Variable 6.9 mph - N/A   Overcast
12:54 AM 55.9 °F 51.1 °F 84% 29.93 in 10.0 mi East 8.1 mph 16.1 mph N/A   Overcast
1:11 AM 55.4 °F 51.8 °F 88% 29.93 in 10.0 mi East 6.9 mph - N/A   Overcast
1:54 AM 55.9 °F 51.1 °F 84% 29.94 in 10.0 mi East 6.9 mph - N/A   Overcast
2:54 AM 55.9 °F 52.0 °F 87% 29.95 in 10.0 mi ENE 8.1 mph - N/A   Overcast
3:54 AM 55.9 °F 51.1 °F 84% 29.96 in 10.0 mi East 9.2 mph - N/A   Overcast
4:54 AM 55.0 °F 51.1 °F 86% 29.97 in 10.0 mi East 6.9 mph - N/A   Overcast
5:54 AM 55.0 °F 51.1 °F 86% 29.98 in 10.0 mi ENE 8.1 mph - N/A   Overcast
6:30 AM 55.4 °F 51.8 °F 88% 29.98 in 10.0 mi East 8.1 mph 17.3 mph N/A   Mostly Cloudy
6:39 AM 55.4 °F 51.8 °F 88% 29.98 in 10.0 mi East 6.9 mph - N/A   Mostly Cloudy
6:54 AM 55.0 °F 51.1 °F 86% 29.99 in 10.0 mi East 9.2 mph 19.6 mph N/A   Overcast
7:54 AM 55.0 °F 51.1 °F 86% 30.01 in 10.0 mi East 8.1 mph - N/A   Overcast
8:54 AM 55.9 °F 51.1 °F 84% 30.02 in 10.0 mi East 10.4 mph - N/A   Overcast
9:54 AM 57.9 °F 53.1 °F 84% 30.03 in 10.0 mi ESE 11.5 mph 19.6 mph N/A   Mostly Cloudy
10:10 AM 59.0 °F 53.6 °F 82% 30.02 in 10.0 mi ESE 13.8 mph 18.4 mph N/A   Mostly Cloudy
10:54 AM 60.1 °F 53.1 °F 78% 30.05 in 10.0 mi ESE 11.5 mph 20.7 mph N/A   Overcast
11:54 AM 57.0 °F 52.0 °F 83% 30.06 in 10.0 mi East 12.7 mph 19.6 mph N/A   Overcast
12:54 PM 57.0 °F 52.0 °F 83% 30.06 in 10.0 mi East 10.4 mph 20.7 mph N/A   Overcast
1:54 PM 60.1 °F 52.0 °F 75% 30.07 in 10.0 mi East 10.4 mph 21.9 mph N/A   Overcast
2:54 PM 60.1 °F 52.0 °F 75% 30.08 in 10.0 mi East 9.2 mph 24.2 mph N/A   Overcast
3:54 PM 57.9 °F 52.0 °F 81% 30.08 in 10.0 mi East 11.5 mph 21.9 mph N/A   Overcast
4:54 PM 57.9 °F 51.1 °F 78% 30.09 in 10.0 mi ESE 8.1 mph - N/A   Overcast
5:54 PM 57.0 °F 51.1 °F 81% 30.08 in 10.0 mi East 10.4 mph 18.4 mph N/A   Overcast
6:54 PM 57.0 °F 51.1 °F 81% 30.08 in 10.0 mi East 10.4 mph 18.4 mph N/A   Overcast
7:49 PM 55.4 °F 51.8 °F 88% 30.06 in 10.0 mi Variable 6.9 mph - N/A   Overcast
7:54 PM 57.0 °F 52.0 °F 83% 30.07 in 10.0 mi ENE 6.9 mph - N/A   Overcast
8:54 PM 55.9 °F 51.1 °F 84% 30.08 in 10.0 mi ENE 8.1 mph 19.6 mph N/A   Overcast
9:31 PM 55.4 °F 51.8 °F 88% 30.07 in 10.0 mi ENE 10.4 mph 18.4 mph N/A   Overcast
9:54 PM 55.9 °F 51.1 °F 84% 30.08 in 10.0 mi Variable 6.9 mph - N/A   Overcast
10:22 PM 55.4 °F 51.8 °F 88% 30.07 in 10.0 mi ENE 10.4 mph 17.3 mph N/A   Overcast
10:54 PM 55.0 °F 52.0 °F 89% 30.09 in 10.0 mi East 3.5 mph - N/A   Overcast
11:54 PM 55.9 °F 52.0 °F 87% 30.07 in 10.0 mi East 9.2 mph - N/A   Overcast